Tracking 29892 objects as of 21-Nov-2024
HD Live streaming from Space Station
objects crossing your sky now

STARLINK-30874

Track STARLINK-30874 now!
10-day predictions
STARLINK-30874 is classified as:


NORAD ID: 58227
Int'l Code: 2023-170X
Perigee: 564.6 km
Apogee: 567.9 km
Inclination: 43.0 °
Period: 95.8 minutes
Semi major axis: 6937 km
RCS: Unknown
Launch date: November 3, 2023
Source: United States (US)
Launch site: AIR FORCE EASTERN TEST RANGE (AFETR)
Your satellite tracking list
Your tracking list is empty




NASA's NSSDC Master Catalog

Two Line Element Set (TLE):
1 58227U 23170X   24325.96564492 -.00001911  00000-0 -12644-3 0  9992
2 58227  43.0028 250.4585 0002423 298.5071  61.5528 15.02523180 58923
Source of the keplerian elements: AFSPC